Tracking 18852 objects as of 23-Nov-2017
HD Live streaming from Space Station
objects crossing your sky now

BREEZE-M DEB (TANK)

Track BREEZE-M DEB (TANK) now!
10-day predictions


NORAD ID: 31103
Int'l Code: 2007-009B
Perigee: 324.4 km
Apogee: 16,808.1 km
Inclination: 49.4 °
Period: 302.8 minutes
Semi major axis: 14937 km
RCS: 7.0331 m2 (large)
Launch date: April 9, 2007
Source: Commonwealth of Independent States (former USSR) (CIS)
Launch site: TYURATAM MISSILE AND SPACE COMPLEX (TTMTR)

Note: This is SATELLITE DEBRIS
aabbcc
Your satellite tracking list
Your tracking list is empty




NASA's NSSDC Master Catalog

Two Line Element Set (TLE):
1 31103U 07009B   17326.85387224 +.00000635 +00000-0 +20333-3 0  9990
2 31103 049.4441 137.2325 5517636 035.9222 350.9354 04.75549273180290
Source of the keplerian elements: AFSPC